Regional Weather Roundup
Issued by NWS

Home | Current Version | Previous Version | Graphics & Text | Print | Product List | Glossary On
Versions: 1 2 3 4 5 6 7 8 9 10 11 12 13 14 15 16 17 18 19 20 21 22 23 24 25 26 27 28 29 30 31 32 33 34 35 36 37 38 39 40 41 42 43 44 45 46 47 48 49 50
000
ASUS43 KTOP 221859
RWRKS

WEATHER ROUNDUP FOR KANSAS
NATIONAL WEATHER SERVICE GOODLAND KS
200 PM CDT MON MAY 22 2017

NOTE:  "FAIR" INDICATES FEW OR NO CLOUDS BELOW 12,000 FEET WITH NO
SIGNIFICANT WEATHER AND/OR OBSTRUCTIONS TO VISIBILITY.

KSZ001>006-013>018-027>032-041>047-222000-
NORTHWEST KANSAS

CITY           SKY/WX    TMP DP  RH WIND       PRES   REMARKS
GOODLAND       MOSUNNY   66  43  43 NW10G20   30.03F
HAYS           CLOUDY    60  56  86 W12       30.02F
HILL CITY      CLOUDY    69  48  47 VRB7      30.00F
RUSSELL        CLOUDY    58  55  90 W12       30.00F
$$

KSZ061>065-074>080-084>089-222000-
SOUTHWEST KANSAS

CITY           SKY/WX    TMP DP  RH WIND       PRES   REMARKS
DODGE CITY     CLOUDY    59  53  80 N12       30.05F
ELKHART          N/A     53  42  66 N8          N/A
GARDEN CITY    CLOUDY    60  49  66 NW7       30.06F
GREAT BEND     LGT RAIN  60  56  86 NW13      30.02
LIBERAL        LGT RAIN  59  54  83 N12       30.07F
$$

KSZ066>073-081>083-090>101-222000-
SOUTHEAST KANSAS

CITY           SKY/WX    TMP DP  RH WIND       PRES   REMARKS
CHANUTE        CLOUDY    74  52  46 SW9       30.02F
COFFEYVILLE    PTSUNNY   76  57  51 S8        30.01F
HUTCHINSON     CLOUDY    66  49  54 SW7       30.00F
MEDICINE LODGE   N/A     68  48  48 SW8       30.00F
NEWTON         CLOUDY    65  51  60 SW12      30.02F
PARSONS        PTSUNNY   76  52  43 VRB7      30.03F
WICHITA INTL   CLOUDY    65  54  67 S6        30.01F
WICHITA JABRA  CLOUDY    67  52  58 SW10      30.02F
WICHITA MCCONL CLOUDY    65  52  62 SW8       30.02F
WINFIELD       CLOUDY    63  53  70 SW9       30.05F
$$

KSZ007>012-019>026-033>040-048>060-102>105-222000-
NORTHEAST KANSAS

CITY           SKY/WX    TMP DP  RH WIND       PRES   REMARKS
CONCORDIA      CLOUDY    60  57  89 SW10      29.99F
EMPORIA        CLOUDY    69  54  58 W8        30.01F
LAWRENCE       PTSUNNY   71  57  61 SW12      29.99F
MANHATTAN      LGT RAIN  61  58  90 VRB6      30.01F
OLATHE IND     CLOUDY    73  55  53 SW14      30.01F
OLATHE EXE     CLOUDY    70  58  65 SW9       30.01F
SALINA         LGT RAIN  63  59  87 NW6       30.01F
TOPEKA BILLARD CLOUDY    72  59  63 SW9       29.98F
TOPEKA FORBES  CLOUDY    73  58  59 SW13      29.98F
$$




USA.gov is the U.S. government's official web portal to all federal, state and local government web resources and services.